User: anonymous   Login
Location: Unspecified
(0.0000°N, 0.0000°E)
Time: 09:39:58
(UTC+00:00)
Language:

Tiros 4 - Orbit

View from above orbital plane
View from above orbital plane
View from above satellite
View from above satellite

Ground track
Ground track

The orbit data is extracted from the following two-line orbital elements,

1   226U 62002A   17295.37764947 -.00000121 +00000-0 +14073-4 0  9995
2   226 048.2962 248.4281 0078368 212.9298 146.6705 14.45600204911238
Epoch (UTC): 22 October 2017 09:03:48
Eccentricity: 0.0078368
inclination: 48.2962°
perigee height: 684 km
apogee height: 796 km
right ascension of ascending node: 248.4281°
argument of perigee: 212.9298°
revolutions per day: 14.45600204
mean anomaly at epoch: 146.6705°
orbit number at epoch: 91123

The dashed part of the orbit path shows where the satellite is in the earth's shadow,  

DLR